Location: Bois-Vignolles
(48.7373°N, 2.7167°E)
Time: 21:36:50
(UTC+00:00)

Daily predictions for brighter satellites

Satellite Brightness Start Highest point End
(mag) Time Altitude Azimuth Time Altitude Azimuth Time Altitude Azimuth
SME Rocket 3.6 17:10:02 10° NNE 17:14:14 86° WNW 17:20:08 10° SSW
NOSS 3-1 (C) 4.2 17:10:13 10° SSE 17:14:30 26° ESE 17:19:19 10° ENE
PSLV R/B 3.8 17:10:48 10° SSE 17:14:48 72° ENE 17:18:45 10° N
Cosmos 1980 Rocket 2.2 17:11:27 10° SSW 17:17:07 84° ESE 17:22:51 10° NNE
Cosmos 2227 4.3 17:13:52 10° NNW 17:19:39 67° ENE 17:25:22 10° SE
Cosmos 2369 4.0 17:14:17 10° SSW 17:19:57 76° WNW 17:25:40 10° NNE
Okean O Rocket 2.1 17:16:04 10° SE 17:20:04 37° ENE 17:24:06 10° N
PAYLOAD B 4.2 17:15:33 10° SSE 17:21:04 75° ENE 17:26:39 10° NNW
SL-8 R/B 4.0 17:17:09 10° SW 17:21:50 56° SSE 17:26:32 10° E
CZ-2C R/B 3.4 17:20:01 10° NNE 17:25:02 33° E 17:29:57 10° SSE
X-37B 1.5 17:22:19 10° WSW 17:25:02 37° S 17:27:45 10° ESE
Lacrosse 4 Rocket 2.2 17:24:05 10° NNW 17:28:01 34° NE 17:32:01 10° ESE
Okean 1 Rocket 3.9 17:24:12 10° SSW 17:28:26 55° WNW 17:32:45 10° N
Meteor 1-4 Rocket 4.2 17:27:40 10° ESE 17:29:35 14° E 17:31:29 10° NE
SMAP 3.8 17:25:51 10° S 17:30:26 60° W 17:35:04 10° NNW
Cosmos 1892 4.4 17:28:38 10° NNE 17:30:49 15° ENE 17:32:57 10° E
Cosmos 1328 4.0 17:27:09 10° N 17:31:04 47° ENE 17:34:59 10° SSE
Cosmos 371 Rocket 3.8 17:28:10 10° S 17:32:39 38° ESE 17:37:09 10° NE
Cosmos 1697 Rocket 3.8 17:27:19 10° SW 17:32:43 45° NW 17:38:09 10° NNE
deb Chang Zheng 4 3.4 17:28:57 10° SSE 17:33:08 73° ENE 17:37:22 10° N
CZ-2D R/B 3.2 17:29:21 10° SSE 17:33:12 78° ENE 17:37:06 10° N
Cosmos 2123 Rocket 4.1 17:29:11 10° N 17:35:25 56° ENE 17:41:36 10° SSE
Okean 1-7 Rocket 3.8 17:31:44 10° N 17:36:02 49° ENE 17:40:21 10° SSE
COSMO-SKYMED 1 2.9 17:33:45 10° NNE 17:37:55 42° E 17:42:01 10° S
CZ-4C R/B 3.8 17:36:57 10° NE 17:39:51 26° E 17:42:39 10° SSE
Okean-O 4.0 17:39:01 11° E 17:41:44 19° ENE 17:44:50 10° NNE
Cosmos 1953 2.5 17:37:50 10° SSW 17:41:54 81° W 17:45:59 10° N
Cosmos 1908 3.7 17:40:02 10° SSW 17:43:53 66° W 17:47:44 10° N
Cosmos 1844 Rocket 3.3 17:39:24 10° NNW 17:44:29 34° NE 17:49:18 11° ESE
Cosmos 1892 Rocket 3.9 17:40:33 10° NNW 17:45:00 71° W 17:49:24 10° S
Cosmos 839 Rocket 4.4 17:38:54 10° NW 17:46:51 66° NE 17:53:19 10° SE
Tiangong 3.0 17:44:21 10° SW 17:46:53 21° S 17:49:04 12° SE
Cosmos 614 Rocket 4.5 17:42:15 10° N 17:46:58 37° ENE 17:51:40 10° SE
Iridium 4 Rocket 3.4 17:43:15 10° N 17:47:47 56° E 17:52:43 10° SSE
SL-08 RB Rocket 4.2 17:43:52 10° SE 17:48:06 39° ENE 17:52:24 10° N
Cosmos 1408 3.6 17:56:40 10° NNE 17:59:38 24° ENE 18:00:10 23° E
Meteor 2-10 Rocket 4.1 17:55:19 10° SSE 18:00:23 37° E 18:05:17 10° NNE
Cosmos 2278 4.2 17:55:19 10° SW 18:00:57 64° WNW 18:06:39 10° NNE
SKYMED 3 4.5 17:57:36 10° NNE 18:01:59 74° ESE 18:06:18 10° S
Cosmos 1758 Rocket 4.3 17:58:44 10° N 18:02:35 30° ENE 18:05:22 16° SE
Cosmos 44 4.4 17:58:47 10° S 18:03:18 28° ESE 18:05:39 20° ENE
Cosmos 2278 Rocket 4.0 18:02:15 10° N 18:05:14 14° NNE 18:06:51 13° NE
NOSS 8 (E) 4.1 18:03:06 10° SSW 18:06:28 67° SE 18:07:57 26° NE
CZ-4 R/B 1.6 18:03:29 10° SE 18:07:21 47° ENE 18:11:19 10° N
SL-19 R/B 4.4 18:02:35 10° NNE 18:08:20 81° WNW 18:13:53 10° SSW
Cosmos 1626 Rocket 3.4 18:04:21 10° N 18:08:40 72° ENE 18:12:59 10° SSE
USA 215 3.6 18:05:33 12° NE 18:11:34 64° NNW 18:18:01 10° WSW
NOSS 2-3 (E) 3.6 18:08:33 10° SSW 18:12:29 57° SE 18:15:31 20° NE
ATLAS 5 CENTAUR R/B 2.5 18:09:51 10° WSW 18:13:38 42° NW 18:17:59 10° NNE
SL-16 R/B 2.1 18:08:12 10° SSW 18:13:48 68° ESE 18:19:27 10° NNE
H-2A R/B 2.8 18:08:29 10° S 18:13:48 59° W 18:19:13 10° NNW
Cosmos 1300 2.6 18:11:47 10° S 18:15:34 86° W 18:19:24 10° N
H-2A R/B 2.4 18:13:00 10° SSE 18:17:16 75° ENE 18:21:25 10° N
DMSP B5D2-2 4.5 18:12:24 10° NNE 18:17:18 38° E 18:22:09 10° SSE
USA 229 DEB 3.9 18:11:26 10° S 18:17:23 43° ESE 18:22:04 18° NE
USA 229 3.9 18:11:34 10° S 18:17:29 43° ESE 18:22:06 18° ENE
IRAS Rocket 4.3 18:13:12 10° NNE 18:18:40 55° ESE 18:24:03 10° S
Cosmos 1825 3.8 18:16:34 10° NNE 18:18:15 19° NE 18:18:15 19° NE
Cosmos 1605 Rocket 3.9 18:18:24 10° S 18:24:37 70° E 18:30:58 10° NNE
SKYMED 2 4.0 18:21:42 10° N 18:26:02 65° WNW 18:30:18 10° SSW
Cosmos 2322 Rocket 2.1 18:21:11 10° SSW 18:26:43 66° ESE 18:32:18 10° NNE
Cosmos 304 Rocket 3.7 18:22:45 10° SSW 18:27:30 68° ESE 18:32:17 10° NNE
Cosmos 220 Rocket 4.2 18:23:55 10° S 18:28:11 49° ESE 18:30:17 27° NE
NOSS 8 (F) 4.5 18:27:34 10° SW 18:30:50 62° NW 18:31:43 39° NNE
Cosmos 1447 Rocket 4.4 18:26:00 10° N 18:32:08 69° ENE 18:38:14 10° SSE
YAOGAN 1 2.5 18:28:22 10° SSE 18:32:42 87° ENE 18:37:03 10° NNW
Feng Yun 1-1 Rocket 4.4 18:27:38 10° SSE 18:33:13 79° WSW 18:39:00 10° NNW
Cosmos 1844 3.7 18:27:58 10° NNW 18:33:44 61° ENE 18:36:47 28° SE
H-2A R/B 2.1 18:33:54 41° ENE 18:34:40 46° E 18:38:42 10° S
Cosmos 2360 Rocket 2.3 18:31:42 10° S 18:37:06 49° ESE 18:40:24 23° NE
ATLAS 3B R/B 4.1 18:31:16 10° W 18:37:07 31° NNW 18:43:16 10° NE
NOSS 3-1 (A) 3.2 18:34:31 10° SSW 18:39:41 57° ESE 18:42:42 28° ENE
Cosmos 2333 Rocket 3.8 18:36:03 10° SSE 18:37:49 18° SSE 18:37:49 18° SSE
HJ-1C 3.2 18:41:53 58° S 18:42:27 83° WSW 18:45:44 10° NNW
Cosmos 1153 Rocket 4.5 18:36:46 10° S 18:43:02 62° E 18:49:22 10° NNE
BREEZE-M R/B 2.8 18:40:54 10° W 18:44:17 64° SSW 18:45:40 39° SE
Cosmos 332 Rocket 3.8 18:41:07 10° SSW 18:46:02 84° WNW 18:50:56 10° NNE
ARGOS 4.1 18:41:45 10° S 18:46:58 49° W 18:52:15 10° NNW
BREEZE-M DEB (TANK) 4.3 18:36:23 10° W 18:49:32 83° N 18:51:01 46° E
MetOp-A 4.0 18:46:55 23° SSE 18:50:22 71° ENE 18:55:44 10° N
Cosmos 2251 Rocket 3.6 18:46:15 10° NNW 18:51:31 76° WSW 18:55:31 17° SSE
In-Cosmos 22 Rocket 4.2 18:48:27 10° NNW 18:53:47 76° W 18:59:05 10° S
Cosmos 407 Rocket 3.5 18:50:42 10° NNW 18:55:59 61° ENE 18:56:49 54° ESE
CENTAUR R/B 4.1 18:49:44 10° NW 18:56:16 31° NNE 18:59:22 25° NE
Okean O Rocket 3.8 18:52:52 10° SSW 18:56:30 26° W 19:00:11 10° NW
Cosmos 1140 Rocket 3.4 18:54:26 10° NNW 18:59:36 61° ENE 19:00:01 59° E
NOSS 2-3 (D) 3.8 18:55:57 10° SW 19:00:01 67° NW 19:01:32 40° NNE
Cosmos 2344 4.4 18:51:01 10° NW 19:00:05 81° SW 19:11:48 13° SSE
X-37B 3.0 18:58:13 10° WSW 18:59:34 16° SW 18:59:34 16° SW
Cosmos 1980 Rocket 4.3 18:57:23 10° W 19:01:51 23° NW 19:06:20 10° N
CSL-04 Debris 4.0 19:00:03 31° SSE 19:02:47 84° ENE 19:08:14 10° NNW
DMSP B5D1-3 4.5 18:58:58 10° NNE 19:04:09 86° WNW 19:09:18 10° SSW
Meteor 1-4 Rocket 3.7 19:00:53 10° SW 19:04:11 40° WNW 19:07:14 12° N
SL-8 R/B 3.5 18:59:28 10° W 19:04:16 88° S 19:04:36 78° E
NOSS 3-1 (C) 3.6 18:59:18 10° SW 19:04:39 66° NW 19:08:48 22° NE
CZ-2C R/B 3.8 19:00:09 10° N 19:05:27 44° WNW 19:10:39 10° SW
Lacrosse 4 Rocket 3.0 19:02:45 10° NW 19:06:41 35° WSW 19:09:21 18° S
Cosmos 1892 3.5 19:03:08 10° NNW 19:06:48 50° W 19:07:58 35° SW
Cosmos 1943 Rocket 4.3 19:04:55 10° N 19:06:50 12° NNE 19:06:50 12° NNE
Cosmos 1023 Rocket 4.3 19:06:03 10° NNW 19:11:17 78° ENE 19:11:35 74° ESE
NOSS 2-3 (C) 4.3 19:08:38 10° WSW 19:12:43 53° NW 19:14:02 39° N
CSL-04 Rocket 3.7 19:12:58 38° SSE 19:15:12 86° WSW 19:20:49 10° NNW
Cosmos 2346 Rocket 4.4 19:10:33 10° N 19:16:48 67° ENE 19:17:31 62° ESE
Okean-O 3.1 19:16:36 43° SSW 19:17:48 59° WSW 19:22:13 10° NNW
Orbus 7S? 4.1 19:10:51 10° NW 19:18:45 61° SW 19:19:15 56° SSW
Tiangong 4.2 19:20:51 10° WSW 19:21:18 12° SW 19:21:18 12° SW
Meteor 2-11 Rocket 4.4 19:20:59 10° S 19:27:09 83° W 19:33:21 10° N
ATLAS 5 CENTAUR R/B 4.5 19:09:00 10° W 19:27:14 38° NNW 19:30:31 24° NNE
Cosmos 1844 Rocket 3.5 19:23:13 10° NW 19:28:33 48° WSW 19:31:01 29° SSW
Resurs 01 Rocket 4.3 19:33:30 10° N 19:33:30 10° N 19:33:36 10° N
Cosmos 1825 Rocket 4.4 19:29:58 10° NNW 19:33:36 47° WNW 19:33:36 47° WNW
Cosmos 1190 Rocket 4.3 19:33:44 10° NNW 19:37:59 60° NNW 19:37:59 60° NNW
CZ-4 R/B 4.1 19:39:48 10° SW 19:42:36 18° W 19:45:28 10° NW
Cosmos 44 3.9 19:38:54 10° SW 19:44:08 61° NW 19:44:08 61° NW
Cosmos 1459 Rocket 3.9 19:40:04 10° S 19:46:17 81° W 19:52:27 10° N
Cosmos 2100 Rocket 4.1 19:40:02 10° SSW 19:46:20 76° W 19:52:44 10° N
Cosmos 2278 Rocket 3.3 19:45:13 10° NNW 19:48:42 34° N 19:48:42 34° N
USA 215 3.9 19:52:55 40° NNE 19:54:03 44° N 20:00:10 10° WNW
SL-16 R/B 4.1 19:53:40 10° WSW 19:58:26 27° NW 20:03:13 10° NNE
ATLAS 5 CENTAUR R/B 4.1 19:56:43 10° NW 19:59:31 16° NNW 19:59:31 16° NNW
Cosmos 2173 Rocket 4.3 19:54:02 10° SSW 20:00:10 64° WNW 20:06:27 10° N
USA 229 DEB 4.2 20:01:53 10° WSW 20:08:12 53° NW 20:09:32 47° N
USA 229 4.2 20:01:59 10° WSW 20:08:18 54° NW 20:09:35 47° N
H-2A R/B 4.5 20:11:03 20° WNW 20:11:03 20° WNW 20:13:28 10° WSW
Cosmos 2322 Rocket 4.0 20:06:31 10° WSW 20:11:15 27° NW 20:14:52 15° N
Cosmos 2360 Rocket 3.6 20:16:12 10° WSW 20:21:19 34° NW 20:22:14 32° NNW
Cosmos 2333 Rocket 4.5 20:19:07 10° SW 20:19:57 14° SW 20:19:57 14° SW
ATLAS 3B R/B 4.3 20:24:41 10° NW 20:30:05 23° N 20:30:40 23° NNE
CENTAUR R/B 3.7 20:40:39 10° NW 20:46:32 51° N 20:46:32 51° N
